Location: Lucerne Valley
(34.4439°N, 116.9669°E)
Time: 22:27:59
(UTC-08:00)

N. Korean satellite - Pass Details

Date: 13 October 2017
Orbit: 461 x 513 km, 97.2° (Epoch: 13 December)

Event Time Altitude Azimuth Distance (km) Brightness Sun altitude
Rises 04:11:07 0° 203° (SSW) 2,558 10.5 -19.5°
Reaches altitude 10° 04:13:48 10° 224° (SW) 1,670 9.8 -20.0°
Maximum altitude 04:16:08 16° 265° (W) 1,317 9.7 -20.5°
Drops below altitude 10° 04:18:27 10° 306° (NW) 1,658 10.1 -21.0°
Sets 04:21:06 0° 328° (NNW) 2,531 10.7 -21.5°
